This is the latest recevied weather packets stored in our database for station/object F5IOR-13. If no packets are shown the sender has not sent any weather packets the latest 10 day(s).
| Time | Temp. | Humidity | Pressure | Rain* | Wind** | Luminosity | Snow |
|---|---|---|---|---|---|---|---|
| 1777880903 | 12.78° C | 83% | 985.1 hPa | 11.68 mm | - | - | - |
| 1777880663 | 12.78° C | 83% | 985.1 hPa | 11.68 mm | - | - | - |
| 1777880543 | 12.78° C | 83% | 985.1 hPa | 11.68 mm | - | - | - |
| 1777880423 | 12.78° C | 83% | 985.1 hPa | 11.68 mm | - | - | - |
| 1777880303 | 12.78° C | 83% | 985.1 hPa | 11.68 mm | - | - | - |
| 1777880243 | 12.78° C | 83% | 985.1 hPa | 11.68 mm | - | - | - |
| 1777880183 | 12.78° C | 83% | 985.1 hPa | 11.68 mm | - | - | - |
| 1777880123 | 12.78° C | 83% | 985.1 hPa | 11.68 mm | - | - | - |
| 1777838907 | 15° C | 58% | 985.1 hPa | 3.56 mm | - | - | - |
| 1777837107 | 16.11° C | 55% | 984.6 hPa | 3.56 mm | - | - | - |
| 1777835307 | 16.67° C | 54% | 984.3 hPa | 3.56 mm | - | - | - |
| 1777833507 | 17.22° C | 53% | 984.2 hPa | 3.56 mm | - | - | - |
| 1777831707 | 17.78° C | 53% | 984.1 hPa | 3.56 mm | - | - | - |
| 1777829907 | 18.33° C | 53% | 984 hPa | 3.56 mm | - | - | - |
| 1777828107 | 18.33° C | 53% | 984.2 hPa | 3.56 mm | - | - | - |
| 1777826307 | 18.89° C | 57% | 984.2 hPa | 3.56 mm | - | - | - |
| 1777824507 | 18.89° C | 58% | 984.4 hPa | 3.56 mm | - | - | - |
| 1777822707 | 18.89° C | 60% | 984.6 hPa | 3.56 mm | - | - | - |
| 1777820907 | 18.33° C | 62% | 984.9 hPa | 3.56 mm | - | - | - |
| 1777819107 | 17.22° C | 66% | 985.2 hPa | 3.56 mm | - | - | - |
| 1777817307 | 16.67° C | 68% | 985.6 hPa | 3.56 mm | - | - | - |
| 1777815507 | 17.78° C | 69% | 986.2 hPa | 3.05 mm | - | - | - |
| 1777813707 | 17.78° C | 71% | 986.6 hPa | 3.05 mm | - | - | - |
| 1777811907 | 17.22° C | 70% | 986.8 hPa | 3.05 mm | - | - | - |
| 1777810107 | 16.67° C | 71% | 987.3 hPa | 3.05 mm | - | - | - |
* Rain latest hour (hover to see other rain measurements)
** Current wind speed in m/s (hover to see current wind gust speed)